Location: Hylvaty SDH
(49.9612°N, 16.4057°E)
Time: 11:55:57
(UTC+01:00)

A-11 Canister half - Pass Details

Date: 06 October 2020
Orbit: 1526 x 1683 km, 47.3° (Epoch: 28 October)

Event Time Altitude Azimuth Distance (km) Brightness Sun altitude
Rises 22:07:55 0° 239° (WSW) 4,673 11.7 -35.1°
Reaches altitude 10° 22:10:59 10° 236° (SW) 3,689 11.1 -35.4°
Enters shadow 22:16:36 40° 219° (SW) 2,106 9.5 -36.1°
Maximum altitude 22:20:03 62° 158° (SSE) 1,693 - -36.5°
Drops below altitude 10° 22:29:16 10° 81° (E) 3,743 - -37.5°
Sets 22:32:24 0° 79° (ENE) 4,746 - -37.9°
